Location: Cormont
(50.5693°N, 1.7416°E)
Time: 22:30:38
(UTC+00:00)

STARLINK-21 - Visible Passes

Search period start: 23 January 2020 00:00
Search period end: 02 February 2020 00:00
Orbit: 528 x 530 km, 53.0° (Epoch: 23 January)

Date Brightness Start Highest point End Pass type
(mag) Time Alt. Az. Time Alt. Az. Time Alt. Az.
23 Jan 6.5 04:06:25 13° ESE 04:06:25 13° ESE 04:07:29 10° E visible
23 Jan 3.9 05:41:41 29° SW 05:43:33 61° SSE 05:47:32 10° ENE visible
24 Jan 6.7 03:55:16 12° E 03:55:16 12° E 03:55:45 10° E visible
24 Jan 3.7 05:30:31 46° SW 05:31:34 68° SSE 05:35:35 10° ENE visible
25 Jan 3.5 05:19:17 69° SSW 05:19:38 76° SSE 05:23:40 10° ENE visible
25 Jan 3.7 06:54:56 10° W 06:58:55 60° N 07:02:56 10° ENE visible
26 Jan 3.6 05:08:01 77° E 05:08:01 77° E 05:11:49 10° ENE visible
26 Jan 3.7 06:43:16 11° W 06:47:06 60° N 06:51:06 10° E visible
27 Jan 4.1 04:56:45 57° ENE 04:56:45 57° ENE 05:00:01 10° ENE visible
27 Jan 3.8 06:32:00 14° WNW 06:35:19 60° N 06:39:19 10° E visible
28 Jan 4.6 04:45:28 43° ENE 04:45:28 43° ENE 04:48:16 10° ENE visible
28 Jan 3.7 06:20:43 18° WNW 06:23:35 60° N 06:27:36 10° E visible
29 Jan 5.1 04:34:13 33° ENE 04:34:13 33° ENE 04:36:34 10° ENE visible
29 Jan 3.7 06:09:28 22° WNW 06:11:56 61° N 06:15:56 10° E visible
30 Jan 5.6 04:23:00 27° ENE 04:23:00 27° ENE 04:24:55 10° ENE visible
30 Jan 3.7 05:58:15 27° WNW 06:00:18 63° N 06:04:19 10° E visible
31 Jan 5.9 04:11:49 22° ENE 04:11:49 22° ENE 04:13:19 10° ENE visible
31 Jan 3.7 05:47:04 33° WNW 05:48:44 66° N 05:52:45 10° E visible
01 Feb 6.3 04:00:40 18° ENE 04:00:40 18° ENE 04:01:47 10° ENE visible
01 Feb 3.6 05:35:56 41° WNW 05:37:12 69° NNE 05:41:14 10° E visible
